Location: Eurasberg
(48.3353°N, 11.0839°E)
Time: 14:25:16
(UTC+00:00)

YAOGAN 1 - Visible Passes

Search period start: 11 April 2026 00:00
Search period end: 21 April 2026 00:00
Orbit: 604 x 606 km, 97.8° (Epoch: 11 April)

Date Brightness Start Highest point End Pass type
(mag) Time Alt. Az. Time Alt. Az. Time Alt. Az.
11 Apr 5.5 18:53:40 10° SW 18:56:12 15° W 18:58:45 10° NW visible
12 Apr 5.8 19:07:38 10° WSW 19:09:04 11° W 19:10:30 10° WNW visible
18 Apr 5.4 18:46:19 10° SW 18:49:14 18° W 18:52:09 10° NW visible
19 Apr 5.6 18:59:58 10° WSW 19:02:04 13° W 19:04:11 10° WNW visible
